| time (UTC) | temp F | wind direction | speed knots | gust knots | rain 1hr in | rain 24hr in | rain mn in | humidity % | barometer mb |
| 20260509153032 | 63 | 0 | 0.0 | 7.0 | 0.00 | 0.00 | 0.00 | 69 | 1011.7 |
| 20260509151527 | 62 | 0 | 0.0 | 7.8 | 0.00 | 0.00 | 0.00 | 70 | 1011.6 |
| 20260509150029 | 61 | 289 | 0.9 | 7.8 | 0.00 | 0.00 | 0.00 | 72 | 1011.4 |
| 20260509144528 | 61 | 293 | 0.9 | 7.0 | 0.00 | 0.00 | 0.00 | 72 | 1011.5 |
| 20260509143034 | 61 | 286 | 0.9 | 6.1 | 0.00 | 0.00 | 0.00 | 73 | 1011.4 |
| 20260509141530 | 61 | 269 | 0.0 | 6.1 | 0.00 | 0.00 | 0.00 | 74 | 1011.4 |
| 20260509140049 | 60 | 0 | 0.0 | 5.2 | 0.00 | 0.00 | 0.00 | 75 | 1011.2 |
| 20260509134530 | 59 | 0 | 0.0 | 3.5 | 0.00 | 0.00 | 0.00 | 78 | 1011.4 |
| 20260509133027 | 57 | 0 | 0.0 | 2.6 | 0.00 | 0.00 | 0.00 | 81 | 1011.4 |
| 20260509131535 | 56 | 0 | 0.0 | 0.0 | 0.00 | 0.00 | 0.00 | 83 | 1011.3 |
| 20260509130029 | 55 | 0 | 0.0 | 0.0 | 0.00 | 0.00 | 0.00 | 85 | 1011.5 |
| 20260509124534 | 53 | 0 | 0.0 | 0.0 | 0.00 | 0.00 | 0.00 | 87 | 1011.7 |
| 20260509123030 | 52 | 0 | 0.0 | 0.9 | 0.00 | 0.00 | 0.00 | 88 | 1011.7 |
| 20260509121544 | 51 | 0 | 0.0 | 0.0 | 0.00 | 0.00 | 0.00 | 89 | 1011.7 |
| 20260509120034 | 51 | 0 | 0.0 | 0.0 | 0.00 | 0.00 | 0.00 | 88 | 1011.7 |
| 20260509114532 | 51 | 0 | 0.0 | 0.0 | 0.00 | 0.00 | 0.00 | 89 | 1011.6 |
| 20260509113027 | 50 | 0 | 0.0 | 0.0 | 0.00 | 0.00 | 0.00 | 89 | 1011.6 |
| 20260509111528 | 50 | 0 | 0.0 | 0.0 | 0.00 | 0.00 | 0.00 | 88 | 1011.7 |
| 20260509110028 | 50 | 0 | 0.0 | 0.0 | 0.00 | 0.00 | 0.00 | 88 | 1011.8 |
| 20260509104526 | 50 | 0 | 0.0 | 0.0 | 0.00 | 0.00 | 0.00 | 88 | 1011.6 |
| 20260509103027 | 50 | 0 | 0.0 | 0.0 | 0.00 | 0.00 | 0.00 | 88 | 1011.5 |
| 20260509101528 | 49 | 0 | 0.0 | 0.0 | 0.00 | 0.00 | 0.00 | 88 | 1011.6 |
| 20260509100032 | 49 | 0 | 0.0 | 0.0 | 0.00 | 0.00 | 0.00 | 88 | 1011.5 |
| 20260509094527 | 49 | 0 | 0.0 | 0.0 | 0.00 | 0.00 | 0.00 | 88 | 1011.4 |
| 20260509093028 | 49 | 0 | 0.0 | 0.0 | 0.00 | 0.00 | 0.00 | 88 | 1011.5 |
| 20260509091530 | 49 | 0 | 0.0 | 0.0 | 0.00 | 0.00 | 0.00 | 88 | 1011.5 |
| 20260509090030 | 49 | 0 | 0.0 | 0.0 | 0.00 | 0.00 | 0.00 | 87 | 1011.5 |
| 20260509084536 | 49 | 0 | 0.0 | 0.0 | 0.00 | 0.00 | 0.00 | 87 | 1011.6 |
| 20260509083038 | 49 | 0 | 0.0 | 0.0 | 0.00 | 0.00 | 0.00 | 87 | 1011.6 |
| 20260509081528 | 49 | 0 | 0.0 | 0.0 | 0.00 | 0.00 | 0.00 | 87 | 1011.6 |
| 20260509080029 | 49 | 0 | 0.0 | 0.0 | 0.00 | 0.00 | 0.00 | 87 | 1011.6 |
| 20260509074528 | 49 | 0 | 0.0 | 0.0 | 0.00 | 0.00 | 0.00 | 86 | 1011.8 |
| 20260509073029 | 50 | 0 | 0.0 | 0.0 | 0.00 | 0.00 | 0.00 | 84 | 1011.7 |
| 20260509071526 | 50 | 0 | 0.0 | 0.0 | 0.00 | 0.00 | 0.00 | 84 | 1011.7 |
| 20260509070028 | 51 | 0 | 0.0 | 0.0 | 0.00 | 0.00 | 0.00 | 84 | 1011.8 |
| 20260509064528 | 51 | 0 | 0.0 | 0.0 | 0.00 | 0.00 | 0.00 | 84 | 1011.8 |
| 20260509063033 | 51 | 0 | 0.0 | 0.0 | 0.00 | 0.00 | 0.00 | 83 | 1012.0 |
| 20260509061536 | 52 | 0 | 0.0 | 0.0 | 0.00 | 0.00 | 0.00 | 82 | 1012.2 |
| 20260509060028 | 52 | 0 | 0.0 | 0.0 | 0.00 | 0.00 | 0.00 | 82 | 1012.5 |
| 20260509054528 | 52 | 0 | 0.0 | 0.0 | 0.00 | 0.00 | 0.00 | 82 | 1012.5 |
| 20260509053032 | 52 | 0 | 0.0 | 0.0 | 0.00 | 0.00 | 0.00 | 81 | 1012.5 |
| 20260509051527 | 52 | 0 | 0.0 | 0.0 | 0.00 | 0.00 | 0.00 | 80 | 1012.8 |
| 20260509050031 | 53 | 0 | 0.0 | 0.0 | 0.00 | 0.00 | 0.00 | 83 | 1012.5 |
| 20260509044528 | 53 | 0 | 0.0 | 0.0 | 0.00 | 0.00 | 0.00 | 80 | 1012.6 |
| 20260509043026 | 53 | 0 | 0.0 | 0.0 | 0.00 | 0.00 | 0.00 | 83 | 1012.6 |
| 20260509041537 | 53 | 0 | 0.0 | 0.0 | 0.00 | 0.00 | 0.00 | 81 | 1012.8 |
| 20260509040029 | 53 | 0 | 0.0 | 0.0 | 0.00 | 0.00 | 0.00 | 81 | 1012.8 |
| 20260509034530 | 53 | 0 | 0.0 | 0.0 | 0.00 | 0.00 | 0.00 | 80 | 1012.9 |
| 20260509033026 | 53 | 0 | 0.0 | 0.0 | 0.00 | 0.00 | 0.00 | 79 | 1012.7 |
| 20260509031531 | 54 | 0 | 0.0 | 0.0 | 0.00 | 0.00 | 0.00 | 79 | 1012.5 |
| 20260509030028 | 54 | 0 | 0.0 | 0.0 | 0.00 | 0.00 | 0.00 | 77 | 1012.7 |
| 20260509024530 | 54 | 0 | 0.0 | 0.0 | 0.00 | 0.00 | 0.00 | 77 | 1012.7 |
| 20260509023027 | 54 | 0 | 0.0 | 0.0 | 0.00 | 0.00 | 0.00 | 75 | 1012.6 |
| 20260509021528 | 55 | 0 | 0.0 | 0.0 | 0.00 | 0.00 | 0.00 | 75 | 1012.6 |
| 20260509020029 | 55 | 0 | 0.0 | 0.0 | 0.00 | 0.00 | 0.00 | 77 | 1012.4 |
| 20260509014527 | 55 | 0 | 0.0 | 0.0 | 0.00 | 0.00 | 0.00 | 75 | 1012.3 |
| 20260509013036 | 55 | 0 | 0.0 | 0.0 | 0.00 | 0.00 | 0.00 | 75 | 1012.1 |
| 20260509011530 | 56 | 0 | 0.0 | 0.0 | 0.00 | 0.00 | 0.00 | 74 | 1012.0 |
| 20260509010039 | 56 | 0 | 0.0 | 0.0 | 0.00 | 0.00 | 0.00 | 70 | 1011.8 |
| 20260509004530 | 57 | 0 | 0.0 | 0.0 | 0.00 | 0.00 | 0.00 | 71 | 1011.5 |
| 20260509003028 | 57 | 0 | 0.0 | 0.0 | 0.00 | 0.00 | 0.00 | 72 | 1011.1 |
| 20260509001527 | 58 | 0 | 0.0 | 0.0 | 0.00 | 0.00 | 0.00 | 68 | 1011.1 |
| 20260509000027 | 59 | 0 | 0.0 | 0.0 | 0.00 | 0.00 | 0.00 | 66 | 1011.1 |
| 20260508234528 | 60 | 0 | 0.0 | 0.0 | 0.00 | 0.00 | 0.00 | 56 | 1011.0 |
| 20260508233028 | 60 | 0 | 0.0 | 0.0 | 0.00 | 0.00 | 0.00 | 55 | 1010.8 |
| 20260508231528 | 61 | 0 | 0.0 | 0.9 | 0.00 | 0.00 | 0.00 | 52 | 1010.7 |
| 20260508230037 | 62 | 0 | 0.0 | 2.6 | 0.00 | 0.00 | 0.00 | 54 | 1010.5 |
| 20260508224537 | 63 | 0 | 0.0 | 2.6 | 0.00 | 0.00 | 0.00 | 51 | 1010.6 |
| 20260508223026 | 63 | 0 | 0.0 | 4.3 | 0.00 | 0.00 | 0.00 | 44 | 1010.6 |
| 20260508221541 | 64 | 0 | 0.0 | 3.5 | 0.00 | 0.00 | 0.00 | 42 | 1010.7 |
| 20260508220030 | 64 | 269 | 0.0 | 6.1 | 0.00 | 0.00 | 0.00 | 42 | 1010.6 |
| 20260508214530 | 65 | 254 | 0.9 | 7.0 | 0.00 | 0.01 | 0.00 | 40 | 1010.7 |
| 20260508213029 | 65 | 192 | 0.9 | 6.1 | 0.00 | 0.01 | 0.00 | 40 | 1010.5 |
| 20260508211527 | 65 | 279 | 1.7 | 6.1 | 0.00 | 0.01 | 0.00 | 41 | 1010.7 |
| 20260508210030 | 64 | 282 | 0.0 | 11.3 | 0.00 | 0.01 | 0.00 | 43 | 1010.8 |
| 20260508204528 | 64 | 0 | 0.0 | 6.1 | 0.00 | 0.01 | 0.00 | 42 | 1010.7 |
| 20260508203029 | 64 | 300 | 0.0 | 7.0 | 0.00 | 0.01 | 0.00 | 41 | 1010.9 |
| 20260508201528 | 65 | 281 | 3.5 | 9.6 | 0.00 | 0.01 | 0.00 | 39 | 1010.9 |
| 20260508200026 | 63 | 0 | 4.3 | 9.6 | 0.00 | 0.01 | 0.00 | 42 | 1011.0 |
| 20260508194528 | 64 | 259 | 0.9 | 6.1 | 0.00 | 0.01 | 0.00 | 41 | 1010.9 |
| 20260508193030 | 64 | 263 | 2.6 | 19.1 | 0.00 | 0.01 | 0.00 | 40 | 1011.0 |
| 20260508191530 | 64 | 339 | 3.5 | 9.6 | 0.00 | 0.01 | 0.00 | 42 | 1010.9 |
| 20260508190031 | 64 | 229 | 3.5 | 9.6 | 0.00 | 0.01 | 0.00 | 43 | 1011.0 |
| 20260508184533 | 65 | 290 | 2.6 | 8.7 | 0.00 | 0.01 | 0.00 | 39 | 1011.0 |
| 20260508183030 | 64 | 258 | 2.6 | 10.4 | 0.00 | 0.01 | 0.00 | 42 | 1011.3 |
| 20260508181529 | 64 | 248 | 2.6 | 8.7 | 0.00 | 0.01 | 0.00 | 39 | 1011.4 |
| 20260508180027 | 63 | 273 | 3.5 | 11.3 | 0.00 | 0.01 | 0.00 | 41 | 1011.4 |
| 20260508174536 | 63 | 320 | 3.5 | 9.6 | 0.00 | 0.01 | 0.00 | 41 | 1011.6 |
| 20260508173028 | 62 | 290 | 3.5 | 13.0 | 0.00 | 0.01 | 0.00 | 42 | 1011.7 |
| 20260508171526 | 63 | 200 | 5.2 | 12.2 | 0.00 | 0.01 | 0.00 | 39 | 1012.1 |
| 20260508170030 | 62 | 338 | 2.6 | 10.4 | 0.00 | 0.01 | 0.00 | 46 | 1011.9 |
| 20260508164534 | 61 | 269 | 4.3 | 13.9 | 0.00 | 0.01 | 0.00 | 44 | 1011.9 |
| 20260508163028 | 60 | 243 | 1.7 | 13.0 | 0.00 | 0.01 | 0.00 | 45 | 1012.2 |
| 20260508161526 | 60 | 327 | 3.5 | 8.7 | 0.00 | 0.01 | 0.00 | 45 | 1012.7 |
| 20260508160031 | 59 | 189 | 0.9 | 7.8 | 0.00 | 0.01 | 0.00 | 46 | 1013.0 |
| 20260508154528 | 58 | 211 | 1.7 | 7.0 | 0.00 | 0.01 | 0.00 | 48 | 1013.1 |